Voltar ao catálogo

DSN-3

AtivoMilitarGEO
NORAD 61733·PAYLOAD·🇯🇵 Japan

Lançado Nov 4, 2024 de Tanegashima Space Center

Loading…

TLE

AtualizadoSource: Space-Track

Época: Sep 14, 2026, 10:33 UTC

1 61733U 24198A   26257.44003122 -.00000258  00000-0  00000-0 0  9998
2 61733   0.0188 195.1952 0001351 318.1128 142.5873  1.00273077  6817

Acompanhe DSN-3 em tempo real com AllMySat

Download on the App Store